Powrót do katalogu

STARLINK-4357

AktywnyŁącznośćSSO
NORAD 53662·PAYLOAD·🇺🇸 United States

Wystrzelony Aug 31, 2022 z Vandenberg Space Force Base

Loading…

Następne Przeloty (najbliższe 24 godziny)

TLE

ŚwieżeSource: CelesTrak SupGP

Epoka: Sep 14, 2026, 22:13 UTC

1 53662C 22105Q   26257.92618056  .00032305  00000+0  88250-3 0  2576
2 53662  97.4944 145.5013 0001692  85.9538 266.9212 15.37435677    13

Śledź STARLINK-4357 w czasie rzeczywistym z AllMySat

Download on the App Store